[[{"header":{"parameterUnit":"m.s-1","parameterCategory":1,"la1":30.2991,"la2":30.254,"lo1":-89.0895,"lo2":-89.0444,"dy":0.0017,"dx":0.0017,"nx":28,"ny":28,"refTime":"2024-06-17T21:00:00:Z","depth":0,"parameterNumber":2,"parameterNumberName":"U-component_of_WINDS"},"data":[0,0,0,0,0,0,0,0,0,0,0,0,0,0,0,0,0,0,0,0,0,0,0,0,0,0,0,0,0,0,0,0,0,0,0,0,0,0,0,0,0,0,0,0,0,0,0,0,0,0,0,0,0,0,0,0,0,0,-6.4058,-6.4058,0,-6.4116,-6.4116,-6.4117,-6.4024,-6.4021,-6.4018,-6.4015,-6.407,-6.4074,-6.4079,0,0,0,0,0,0,0,0,0,0,0,0,0,-6.3864,-6.3868,-6.4058,-6.4058,-6.4059,-6.4116,-6.4116,-6.4117,-6.4025,-6.4021,-6.4017,-6.4013,-6.4069,-6.4074,-6.4079,0,0,0,0,0,0,0,0,0,0,0,0,0,-6.3937,-6.3869,-6.4058,-6.402,-6.4017,-6.4115,-6.4116,-6.4117,-6.4026,-6.4021,-6.4016,-6.4012,-6.4067,-6.4073,-6.408,-6.4216,0,0,-6.41,-6.4103,0,0,0,0,0,0,0,0,-6.3933,-6.3944,-6.4025,-6.4023,-6.402,-6.4058,-6.4068,-6.415,-6.4027,-6.4022,-6.4015,-6.4009,-6.407,-6.4076,-6.4097,-6.4219,-6.4221,-6.4101,-6.4105,-6.4108,-6.411,0,0,0,0,0,0,0,-6.3928,-6.3941,-6.408,-6.4026,-6.4023,-6.3999,-6.4004,-6.4083,-6.4072,-6.4022,-6.4016,-6.4024,-6.4067,-6.4091,-6.4097,-6.4222,-6.4101,-6.4106,-6.4111,-6.4113,-6.4458,-6.4463,0,0,0,0,0,0,-6.3928,-6.3938,-6.4079,-6.4082,-6.3964,-6.4006,-6.4012,-6.405,-6.4071,-6.4069,-6.4028,-6.402,-6.4082,-6.409,-6.4099,-6.4259,-6.4108,-6.4114,-6.4118,-6.4453,-6.4459,-6.4465,0,0,0,0,0,0,-6.3924,-6.3942,-6.4076,-6.4008,-6.4024,-6.4015,-6.4058,-6.4054,-6.4077,-6.4075,-6.4072,-6.4054,-6.4078,-6.409,-6.4188,-6.4259,-6.4117,-6.4123,-6.4447,-6.4455,-6.4462,-6.458,0,0,0,0,0,0,-6.3919,-6.3941,-6.3993,-6.401,-6.4028,-6.4165,-6.4063,-6.4059,-6.409,-6.4079,-6.4099,-6.4098,-6.4075,-6.4179,-6.4195,-6.4266,-6.4128,-6.444,-6.4451,-6.446,-6.457,-6.4591,-6.4609,0,0,0,0,0,-6.3913,-6.4023,-6.3996,-6.4014,-6.4093,-6.417,-6.4179,-6.4153,-6.4096,-6.4148,-6.4146,-6.4097,-6.425,-6.4189,-6.4207,-6.4281,-6.4436,-6.4448,-6.4459,-6.4561,-6.4587,-6.4609,0,0,0,0,0,0,-6.4013,-6.4025,-6.3995,-6.4115,-6.4142,-6.4154,-6.4218,-6.4181,-6.4224,-6.4212,-6.4176,-6.4181,-6.4287,-6.4294,-6.4226,-6.4414,-6.4333,-6.4349,-6.4405,-6.4429,-6.4449,-6.4443,-6.4134,0,0,0,0,0,-6.405,-6.4112,-6.4119,-6.4224,-6.4239,-6.4227,-6.4259,-6.4237,-6.4263,-6.4273,-6.4279,-6.4306,-6.4359,-6.4395,-6.4445,-6.4572,-6.4574,-6.4632,-6.4651,-6.4668,-6.468,-6.4747,-6.4772,-6.4503,-6.4503,-6.4503,0,0,-6.4124,-6.4139,-6.418,-6.4244,-6.4263,-6.4327,-6.4237,-6.4309,-6.4355,-6.4284,-6.4376,-6.4383,-6.4409,-6.4523,-6.4573,-6.4532,-6.4756,-6.4683,-6.4695,-6.4699,-6.4762,-6.4787,-6.481,-6.4511,-6.451,-6.4508,0,0,-6.4293,-6.4312,-6.4401,-6.4422,-6.4452,-6.4443,-6.4465,-6.4483,-6.4484,-6.4578,-6.4525,-6.458,-6.4674,-6.4695,-6.4718,-6.4898,-6.4854,-6.4916,-6.5017,-6.5082,-6.5104,-6.5122,-6.5184,-6.5207,-6.4929,-6.4929,-6.493,0,-6.4382,-6.4478,-6.4451,-6.4526,-6.4555,-6.4497,-6.4585,-6.4607,-6.4651,-6.4672,-6.4627,-6.4743,-6.4758,-6.4874,-6.4918,-6.494,-6.4962,-6.4911,-6.5103,-6.5121,-6.5138,-6.5197,-6.5221,-6.4937,-6.4936,-6.4935,-6.4934,0,-6.4584,-6.4652,-6.472,-6.4766,-6.4803,-6.4885,-6.4869,-6.491,-6.4886,-6.4882,-6.4977,-6.4993,-6.5044,-6.5071,-6.5047,-6.5185,-6.5158,-6.5109,-6.5026,-6.5171,-6.5226,-6.5248,-6.4947,-6.4944,-6.4942,-6.494,0,0,-6.4814,-6.4846,-6.4871,-6.4891,-6.4921,-6.4972,-6.5052,-6.5103,-6.5138,-6.5172,-6.5236,-6.5318,-6.5273,-6.53,-6.5278,-6.5336,-6.5475,-6.5279,-6.5279,-6.5313,-6.5626,-6.566,-6.5687,-6.5448,-6.5452,-6.5455,-6.5623,0,-6.498,-6.5118,-6.5097,-6.523,-6.5291,-6.5237,-6.5306,-6.5332,-6.5331,-6.5382,-6.5381,-6.5439,-6.5376,-6.5391,-6.5447,-6.5447,-6.5537,-6.5435,-6.5505,-6.5508,-6.5496,-6.5716,-6.5752,-6.5909,-6.5644,-6.5648,-6.565,0,-6.5191,-6.5234,-6.5374,-6.5394,-6.5419,-6.5482,-6.5528,-6.5578,-6.5606,-6.5601,-6.5632,-6.56,-6.5679,-6.5598,-6.5705,-6.5635,-6.5664,-6.5668,-6.5674,-6.5676,-6.5585,-6.5721,-6.5959,-6.5981,-6.5684,-6.5681,-6.5679,0,-6.5342,-6.5435,-6.553,-6.5549,-6.5576,-6.5621,-6.5635,-6.5658,-6.5691,-6.5731,-6.5752,-6.5801,-6.5827,-6.5865,-6.5847,-6.579,-6.5956,-6.5874,-6.5952,-6.5953,-6.5987,-6.5984,-6.6229,-6.6011,-6.601,-6.601,-6.6009,0,-6.5528,-6.5614,-6.5598,-6.5656,-6.5751,-6.5727,-6.5821,-6.5828,-6.585,-6.5907,-6.5865,-6.592,-6.5894,-6.5947,-6.5933,-6.6023,-6.6035,-6.6033,-6.6027,-6.6035,-6.6035,-6.605,-6.6037,-6.6016,-6.6015,-6.6014,-6.6012,0,-6.571,-6.5703,-6.5802,-6.5821,-6.5828,-6.5898,-6.5913,-6.5967,-6.5964,-6.6038,-6.6054,-6.6049,-6.6109,-6.6096,-6.6162,-6.6153,-6.6265,-6.6247,-6.6255,-6.625,-6.6328,-6.632,-6.6589,-6.6622,-6.6385,-6.6387,-6.6389,0,-6.5827,-6.5892,-6.5919,-6.5956,-6.5973,-6.6032,-6.6066,-6.6045,-6.6082,-6.612,-6.6169,-6.6226,-6.6269,-6.6368,-6.637,-6.642,-6.6401,-6.6493,-6.6408,-6.6414,-6.64,-6.6395,-6.64,-6.6508,-6.651,-6.6513,-6.6514,0,-6.6035,-6.6029,-6.6079,-6.613,-6.6172,-6.6211,-6.6244,-6.6277,-6.6259,-6.6302,-6.6364,-6.6398,-6.6467,-6.6523,-6.657,-6.6582,-6.6545,-6.6542,-6.6562,-6.6568,-6.6569,-6.6567,-6.6297,-6.6535,-6.6533,-6.6531,-6.653,-6.6529,-6.6186,-6.6241,-6.6269,-6.6328,-6.6352,-6.6385,-6.6437,-6.6442,-6.6494,-6.6548,-6.6533,-6.6603,-6.663,-6.6689,-6.6708,-6.6761,-6.6727,-6.6757,-6.6764,-6.6771,-6.6779,-6.6564,-6.677,-6.677,-6.6769,-6.6769,-6.6768,0,-6.6389,-6.6405,-6.646,-6.6509,-6.6555,-6.652,-6.6556,-6.6596,-6.6659,-6.6688,-6.6733,-6.6804,-6.6859,-6.6867,-6.6919,-6.696,-6.6945,-6.6974,-6.6969,-6.6972,-6.6808,-6.6784,-6.6986,-6.6986,-6.6986,-6.6986,-6.6986,-6.6986,-6.65,-6.6592,-6.6589,-6.6693,-6.6708,-6.6777,-6.6801,-6.6831,-6.6854,-6.6936,-6.6982,-6.6988,-6.7008,-6.7061,-6.711,-6.7111,-6.713,-6.7166,-6.716,-6.7006,-6.6984,-6.6963,-6.694,-6.7171,-6.7172,-6.7319,-6.7321,-6.7322]},{"header":{"parameterUnit":"m.s-1","parameterCategory":1,"la1":30.2991,"la2":30.254,"lo1":-89.0895,"lo2":-89.0444,"dy":0.0017,"dx":0.0017,"nx":28,"ny":28,"refTime":"2024-06-17T21:00:00:Z","depth":0,"parameterNumber":3,"parameterNumberName":"V-component_of_WINDS"},"data":[0,0,0,0,0,0,0,0,0,0,0,0,0,0,0,0,0,0,0,0,0,0,0,0,0,0,0,0,0,0,0,0,0,0,0,0,0,0,0,0,0,0,0,0,0,0,0,0,0,0,0,0,0,0,0,0,0,0,1.7943,1.7943,0,1.7966,1.7966,1.7966,1.8046,1.8048,1.805,1.8051,1.8068,1.8067,1.8066,0,0,0,0,0,0,0,0,0,0,0,0,0,1.7963,1.7962,1.7943,1.7943,1.7943,1.7966,1.7966,1.7966,1.8046,1.8048,1.805,1.8052,1.8068,1.8067,1.8065,0,0,0,0,0,0,0,0,0,0,0,0,0,1.7967,1.7962,1.7943,1.7986,1.799,1.7965,1.7966,1.7966,1.8045,1.8048,1.8051,1.8053,1.8069,1.8067,1.8065,1.7999,0,0,1.8059,1.8059,0,0,0,0,0,0,0,0,1.7966,1.7966,1.7979,1.7983,1.7987,1.8006,1.7979,1.7977,1.8045,1.8024,1.8051,1.8055,1.8045,1.8045,1.8043,1.8,1.8,1.8059,1.8058,1.8057,1.8057,0,0,0,0,0,0,0,1.7966,1.7965,1.7952,1.7979,1.7984,1.8002,1.8006,1.7979,1.8018,1.8026,1.8032,1.8034,1.8047,1.8045,1.8044,1.8001,1.8059,1.8058,1.8057,1.8056,1.7905,1.7902,0,0,0,0,0,0,1.796,1.7964,1.7951,1.7952,1.7984,1.8,1.8004,1.7997,1.8019,1.8025,1.8032,1.8038,1.8047,1.8046,1.8045,1.7969,1.8057,1.8056,1.8054,1.7908,1.7904,1.7901,0,0,0,0,0,0,1.7961,1.7958,1.795,1.796,1.796,1.7997,1.7988,1.7996,1.7994,1.8023,1.803,1.8022,1.8049,1.8048,1.801,1.7971,1.8055,1.8053,1.7911,1.7907,1.7903,1.7816,0,0,0,0,0,0,1.7961,1.7958,1.7934,1.7959,1.796,1.7916,1.7986,1.7995,1.7991,1.7999,1.8016,1.8021,1.8051,1.8013,1.8008,1.797,1.8052,1.7915,1.7909,1.7904,1.7823,1.7809,1.7798,0,0,0,0,0,1.7961,1.7907,1.7932,1.793,1.7931,1.7914,1.7914,1.7951,1.7987,1.7963,1.7982,1.8021,1.7976,1.8008,1.8004,1.7964,1.7917,1.7911,1.7904,1.7828,1.7812,1.7798,0,0,0,0,0,0,1.7873,1.7911,1.7939,1.7892,1.7899,1.7927,1.7897,1.7932,1.7927,1.7935,1.7979,1.7982,1.7938,1.7948,1.7983,1.7902,1.7953,1.7946,1.7897,1.7882,1.7869,1.7867,1.805,0,0,0,0,0,1.7849,1.7834,1.7867,1.7822,1.7824,1.786,1.7854,1.7882,1.7891,1.7893,1.791,1.7915,1.7903,1.7893,1.7883,1.7825,1.783,1.7796,1.7783,1.7773,1.7765,1.7736,1.7721,1.788,1.788,1.788,0,0,1.7797,1.7816,1.7803,1.7805,1.7814,1.7796,1.7862,1.784,1.7826,1.7889,1.7856,1.7868,1.7877,1.783,1.7809,1.7836,1.7723,1.7765,1.7756,1.7754,1.7728,1.7713,1.7699,1.7875,1.7876,1.7877,0,0,1.7694,1.7707,1.7671,1.768,1.7694,1.7719,1.771,1.7733,1.7745,1.7713,1.776,1.7744,1.7721,1.7726,1.7725,1.7626,1.7661,1.7622,1.7556,1.7527,1.7515,1.7504,1.7468,1.7455,1.7614,1.7614,1.7614,0,1.7627,1.7603,1.7648,1.7623,1.7622,1.7682,1.7646,1.7651,1.766,1.7657,1.7688,1.7662,1.7671,1.7626,1.7602,1.76,1.7591,1.7619,1.7513,1.7503,1.7493,1.746,1.7446,1.7609,1.7609,1.761,1.761,0,1.752,1.7504,1.7473,1.7483,1.7479,1.7448,1.7487,1.7477,1.7506,1.7527,1.7494,1.7509,1.7503,1.7495,1.7521,1.7453,1.7469,1.7506,1.7558,1.7472,1.7442,1.7429,1.7602,1.7604,1.7605,1.7606,0,0,1.7359,1.7397,1.7385,1.7391,1.7412,1.7399,1.7371,1.7368,1.7359,1.7363,1.734,1.7321,1.7356,1.7355,1.7384,1.7358,1.7279,1.7398,1.7399,1.7375,1.7204,1.7176,1.716,1.7304,1.7301,1.7299,1.7203,0,1.7261,1.7217,1.7257,1.7205,1.719,1.7248,1.7224,1.7233,1.7253,1.7242,1.7263,1.7248,1.7296,1.7296,1.7273,1.7293,1.7245,1.7301,1.7281,1.7279,1.7275,1.7144,1.7113,1.7022,1.7192,1.719,1.7188,0,1.7139,1.7141,1.7088,1.7115,1.711,1.7087,1.7089,1.7078,1.709,1.7106,1.7107,1.7143,1.7116,1.717,1.7133,1.717,1.7165,1.7174,1.7171,1.7169,1.7227,1.7137,1.6994,1.6979,1.717,1.7171,1.7172,0,1.7026,1.7016,1.6983,1.6986,1.7016,1.6999,1.7011,1.7026,1.7022,1.7023,1.7021,1.7018,1.7015,1.7012,1.7046,1.7081,1.7005,1.7061,1.7016,1.7015,1.6995,1.6995,1.6847,1.6994,1.6994,1.6994,1.6994,0,1.6911,1.6875,1.6933,1.6913,1.6875,1.6922,1.6883,1.69,1.6914,1.6897,1.6947,1.6929,1.6976,1.6963,1.699,1.6955,1.6954,1.6965,1.6972,1.696,1.6958,1.6955,1.6962,1.6991,1.6991,1.6992,1.6993,0,1.6777,1.6814,1.6783,1.6815,1.6822,1.6793,1.682,1.6802,1.6826,1.6804,1.6802,1.6839,1.6827,1.6861,1.6853,1.6871,1.6822,1.6839,1.6818,1.6823,1.6776,1.6779,1.6619,1.66,1.6759,1.6758,1.6757,0,1.67,1.6675,1.6706,1.67,1.6709,1.6698,1.6695,1.674,1.6735,1.6749,1.6729,1.6722,1.6718,1.6696,1.672,1.6715,1.6733,1.6677,1.6732,1.6721,1.6731,1.6731,1.6729,1.6665,1.6663,1.6661,1.666,0,1.6559,1.658,1.6576,1.6578,1.6574,1.6578,1.6584,1.6576,1.6624,1.6616,1.6606,1.6603,1.6598,1.6589,1.659,1.66,1.6637,1.6643,1.6632,1.6618,1.6607,1.6612,1.6786,1.6646,1.6647,1.6648,1.6649,1.665,1.6451,1.6432,1.6452,1.6445,1.6456,1.6462,1.6447,1.6471,1.6464,1.6464,1.6491,1.6475,1.6489,1.6495,1.6501,1.6489,1.6514,1.6498,1.6494,1.6489,1.6481,1.661,1.6489,1.6489,1.649,1.649,1.649,0,1.6313,1.6329,1.6323,1.6333,1.6327,1.6367,1.6377,1.6369,1.6356,1.6367,1.6363,1.6352,1.6345,1.637,1.6367,1.6352,1.6369,1.6349,1.6349,1.6351,1.6459,1.6468,1.6335,1.6335,1.6335,1.6335,1.6335,1.6335,1.624,1.621,1.6233,1.6209,1.6225,1.6212,1.6214,1.622,1.6229,1.6215,1.621,1.6228,1.6245,1.6243,1.6238,1.6246,1.6242,1.6216,1.6229,1.6328,1.6344,1.6358,1.6367,1.6215,1.6215,1.6123,1.6122,1.6121]}]]